Regional Weather Roundup
Issued by NWS

Home | Current Version | Previous Version | Text Only | Print | Product List | Glossary Off
Versions: 1 2 3 4 5 6 7 8 9 10 11 12 13 14 15 16 17 18 19 20 21 22 23 24 25 26 27 28 29 30 31 32 33 34 35 36 37 38 39 40 41 42 43 44 45 46 47 48 49 50

621
ASUS43 KIND 241759
RWRIN

WEATHER ROUNDUP FOR INDIANA
NATIONAL WEATHER SERVICE INDIANAPOLIS IN
200 PM EDT TUE APR 24 2018

NOTE: "FAIR" INDICATES FEW OR NO CLOUDS BELOW 12,000 FEET WITH NO
SIGNIFICANT WEATHER AND/OR OBSTRUCTIONS TO VISIBILITY.

* - STATION DOES NOT REPORT WEATHER SUCH AS PRECIPITATION OR FOG.

+ - STATION NOT QUALITY CONTROLLED BY THE NATIONAL WEATHER SERVICE.
    USE DATA WITH CAUTION...ESPECIALLY DEWPOINT AND RELATIVE
    HUMIDITY OBSERVATIONS.

INZ001>003-010>013-019-020-241900-
NORTHWEST INDIANA

CITY           SKY/WX    TMP DP  RH WIND       PRES   REMARKS
GARY /AIRPORT/ PTSUNNY   57  46  67 NW9       30.03F
KNOX *+        CLOUDY    57  50  77 N6        30.00S
MONTICELLO +   CLOUDY    57  50  76 NE6       29.98F
6HR MIN TEMP:  50; 6HR MAX TEMP:  58;

RENSSELAER +   CLOUDY    61  46  59 N9        29.99F

$$

LMZ046-743>745-241900-
SOUTHERN LAKE MICHIGAN

STATION/POSITION TIME  TEMP    WIND        PRES    WAVE
                       AIR SEA DIR/SP/G            HT
                 (UTC) (F)     (DEG/KT/KT) (MB)    (FT)
BURNS HARBOR     1740   43     320/  5/  6 1017.3F
MICHIGAN CITY    1730   44      10/  4/  8   N/A

$$

INZ004-005-014>016-021>024-241900-
NORTH CENTRAL INDIANA

CITY           SKY/WX    TMP DP  RH WIND       PRES   REMARKS
ELKHART        PTSUNNY   59  48  67 E7        30.01F
GOSHEN         CLOUDY    58  49  72 E8        30.00F
6HR MIN TEMP:  52; 6HR MAX TEMP:  59;

PERU/GRISSOM   CLOUDY    55  55 100 NE7       29.97
ROCHESTER +    CLOUDY    55  54  94 NE3       30.00F
SOUTH BEND     CLOUDY    57  48  72 E5        30.03S
6HR MIN TEMP:  51; 6HR MAX TEMP:  58;

WARSAW +       CLOUDY    59  50  72 E9        30.00F

$$

INZ006>009-017-018-025>027-241900-
NORTHEAST INDIANA

CITY           SKY/WX    TMP DP  RH WIND       PRES   REMARKS
ANGOLA *+      CLOUDY    55  50  82 E8G15     30.01F
FORT WAYNE     CLOUDY    57  50  77 E12       29.99F
6HR MIN TEMP:  52; 6HR MAX TEMP:  57;

KENDALLVILLE + CLOUDY    56  46  68 E8        30.01F

$$

INZ028-029-035-036-043>045-051>053-241900-
WEST CENTRAL INDIANA

CITY           SKY/WX    TMP DP  RH WIND       PRES   REMARKS
GREENCASTLE +  CLOUDY    54  52  94 N6        29.96F
LAFAYETTE      CLOUDY    57  52  83 NE8       29.97F
6HR MIN TEMP:  52; 6HR MAX TEMP:  58;

TERRE HAUTE    CLOUDY    57  52  83 N10       29.96F
6HR MIN TEMP:  53; 6HR MAX TEMP:  58;


$$

INZ030>032-037>040-046>048-054>057-064-065-241900-
CENTRAL INDIANA

CITY           SKY/WX    TMP DP  RH WIND       PRES   REMARKS
ANDERSON         N/A     55  54  94 E6        29.96F
COLUMBUS       CLOUDY    54 N/A N/A NE6       29.94F
GREENWOOD *+   CLOUDY    54  52  94 NE7       29.95F
6HR MIN TEMP:  50; 6HR MAX TEMP:  54;

INDIANAPOLIS   DRIZZLE   55  53  93 NE7       29.94F FOG
6HR MIN TEMP:  51; 6HR MAX TEMP:  55; 6HR PCP:  0.05;

-EAGLE CREEK   CLOUDY    56  52  86 NE5       29.94F
6HR MIN TEMP:  52; 6HR MAX TEMP:  56; 6HR PCP:  0.04;

KOKOMO +       CLOUDY    56  51  84 VRB6      29.98F
6HR MIN TEMP:  51; 6HR MAX TEMP:  56; 6HR PCP: TRACE;

MT COMFORT *+  CLOUDY    54  54 100 E8        29.95F
SHELBYVILLE    CLOUDY    57  53  86 NE8       29.93F
6HR MIN TEMP:  52; 6HR MAX TEMP:  57; 6HR PCP:  0.10;

ZIONSVILLE +   CLOUDY    53  53  99 NE7       29.96F FOG
6HR MIN TEMP:  49; 6HR MAX TEMP:  53; 6HR PCP:  0.01;


$$

INZ033-034-041-042-049-050-058-059-241900-
EAST CENTRAL INDIANA

CITY           SKY/WX    TMP DP  RH WIND       PRES   REMARKS
MUNCIE         CLOUDY    57  53  86 E9        29.96F FOG
6HR MIN TEMP:  52; 6HR MAX TEMP:  57;


$$

INZ060-061-067>069-081>083-085>088-241900-
SOUTHWEST INDIANA

CITY           SKY/WX    TMP DP  RH WIND       PRES   REMARKS
EVANSVILLE     LGT RAIN  56  55  97 N7        29.94F
6HR MIN TEMP:  54; 6HR MAX TEMP:  57; 6HR PCP:  0.24;

HUNTINGBURG +  CLOUDY    56  54  93 N7        29.93F
6HR MIN TEMP:  53; 6HR MAX TEMP:  57; 6HR PCP:  0.02;


$$

INZ062-063-066-070>080-084-089>092-241900-
SOUTH CENTRAL AND SOUTHEAST INDIANA

CITY           SKY/WX    TMP DP  RH WIND       PRES   REMARKS
BLOOMINGTON    CLOUDY    56  53  90 N7        29.93F
6HR MIN TEMP:  52; 6HR MAX TEMP:  56; 6HR PCP:  0.03;

SEYMOUR +      CLOUDY    57  54  88 NE5       29.91F

$$





USA.gov is the U.S. government's official web portal to all federal, state and local government web resources and services.